Station BHBM3 - 8443970 - Boston, MA Image indicating link to RSS feed of recent meteorological observations for station BHBM3


Conditions at BHBM3 as of
(9:30 am EDT)
1330 GMT on 07/22/2024:
     

Click on the graph icon in the table below to see a time series plot of the last five days of that observation.

5-day plot - Atmospheric Pressure Atmospheric Pressure (PRES):30.10 in
5-day plot - Air Temperature Air Temperature (ATMP): 72.3 °F
NOS Water Level Observation Network Water Level
Previous observations
TIME
(EDT)
5-day plot - Wind Direction
WDIR
 
5-day plot - Wind Speed
WSPD
kts
5-day plot - Wind Gust
GST
kts
5-day plot - Wave Height
WVHT
ft
5-day plot - Dominant Wave Period
DPD
sec
5-day plot - Average Wave Period
APD
sec
5-day plot - Mean Wave Direction
MWD
 
5-day plot - Atmospheric Pressure
PRES
in
5-day plot - Pressure Tendency
PTDY
in
5-day plot - Air Temperature
ATMP
°F
5-day plot - Water Temperature
WTMP
°F
5-day plot - Dew Point
DEWP
°F
5-day plot - Salinity
SAL
psu
5-day plot - Visibility
VIS
nmi
5-day plot - Tide (above MLLW)
TIDE
ft
2024-07-22 09:24 am-------30.10- 72.1-----
2024-07-22 09:18 am-------30.10- 72.7-----
2024-07-22 09:12 am-------30.10- 73.4-----
2024-07-22 09:06 am-------30.10- 73.2-----
2024-07-22 09:00 am-------30.10+0.03 73.0-----
2024-07-22 08:54 am-------30.09- 73.0-----
2024-07-22 08:48 am-------30.09- 73.0-----
2024-07-22 08:42 am-------30.09- 73.2-----
2024-07-22 08:36 am-------30.09- 73.8-----
2024-07-22 08:30 am-------30.09- 73.2-----
2024-07-22 08:24 am-------30.09- 72.5-----
2024-07-22 08:18 am-------30.09- 72.9-----
2024-07-22 08:12 am-------30.09- 73.6-----
2024-07-22 08:06 am-------30.09- 73.2-----
2024-07-22 08:00 am-------30.09+0.04 73.0-----
2024-07-22 07:54 am-------30.09- 72.1-----
2024-07-22 07:48 am-------30.09- 71.8-----
2024-07-22 07:42 am-------30.09- 71.8-----
2024-07-22 07:36 am-------30.09- 72.3-----
2024-07-22 07:30 am-------30.09- 72.1-----
2024-07-22 07:24 am-------30.09- 71.8-----
2024-07-22 07:18 am-------30.09- 71.4-----
2024-07-22 07:12 am-------30.09- 71.4-----
2024-07-22 07:06 am-------30.08- 71.1-----
2024-07-22 07:00 am-------30.08+0.03 71.4-----
2024-07-22 06:54 am-------30.08- 70.9-----
2024-07-22 06:48 am-------30.08- 70.7-----
2024-07-22 06:42 am-------30.08- 70.9-----
2024-07-22 06:36 am-------30.08- 70.5-----
2024-07-22 06:30 am-------30.08- 70.3-----
2024-07-22 06:24 am-------30.07- 70.0-----
2024-07-22 06:18 am-------30.07- 70.0-----
2024-07-22 06:12 am-------30.07- 69.3-----
2024-07-22 06:06 am-------30.07- 68.4-----
2024-07-22 06:00 am-------30.07+0.02 67.6-----
2024-07-22 05:54 am-------30.07- 68.2-----
2024-07-22 05:48 am-------30.06- 69.3-----
2024-07-22 05:42 am-------30.07- 68.7-----
2024-07-22 05:36 am-------30.07- 68.9-----
2024-07-22 05:30 am-------30.06- 67.6-----
2024-07-22 05:24 am-------30.06- 67.5-----
2024-07-22 05:18 am-------30.06- 66.7-----
2024-07-22 05:12 am-------30.06- 66.4-----
2024-07-22 05:06 am-------30.06- 66.2-----
2024-07-22 05:00 am-------30.06+0.01 66.6-----
2024-07-22 04:54 am-------30.06- 68.5-----
2024-07-22 04:48 am-------30.06- 68.5-----
2024-07-22 04:42 am-------30.06- 67.8-----
2024-07-22 04:36 am-------30.06- 67.3-----
2024-07-22 04:30 am-------30.06- 66.7-----
2024-07-22 04:24 am-------30.05- 67.1-----
2024-07-22 04:18 am-------30.05- 66.7-----
2024-07-22 04:12 am-------30.05- 66.2-----
2024-07-22 04:06 am-------30.05- 66.6-----
2024-07-22 04:00 am-------30.05+0.00 67.8-----
2024-07-22 03:54 am-------30.05- 68.4-----
2024-07-22 03:48 am-------30.05- 68.2-----
2024-07-22 03:42 am-------30.05- 67.1-----
2024-07-22 03:36 am-------30.05- 67.5-----
2024-07-22 03:30 am-------30.05- 67.1-----
2024-07-22 03:24 am-------30.05- 66.6-----
2024-07-22 03:18 am-------30.05- 66.7-----
2024-07-22 03:12 am-------30.05- 66.6-----
2024-07-22 03:06 am-------30.05- 66.6-----
2024-07-22 03:00 am-------30.05+0.01 66.2-----
2024-07-22 02:54 am-------30.05- 66.2-----
2024-07-22 02:48 am-------30.05- 67.1-----
2024-07-22 02:42 am-------30.05- 66.4-----
2024-07-22 02:36 am-------30.05- 66.4-----
2024-07-22 02:30 am-------30.05- 66.6-----
2024-07-22 02:24 am-------30.05- 67.1-----
2024-07-22 02:18 am-------30.04- 68.2-----
2024-07-22 02:12 am-------30.04- 68.5-----
2024-07-22 02:06 am-------30.04- 68.7-----
2024-07-22 02:00 am-------30.04+0.02 68.2-----
2024-07-22 01:54 am-------30.04- 69.8-----
2024-07-22 01:48 am-------30.04- 70.9-----
2024-07-22 01:42 am-------30.04- 70.7-----
2024-07-22 01:36 am-------30.04- 70.5-----
2024-07-22 01:30 am-------30.04- 71.4-----
2024-07-22 01:24 am-------30.04- 71.6-----
2024-07-22 01:18 am-------30.04- 71.8-----
2024-07-22 01:12 am-------30.04- 70.3-----
2024-07-22 01:06 am-------30.04- 69.3-----
2024-07-22 01:00 am-------30.04+0.02 71.8-----
2024-07-22 12:54 am-------30.04- 72.0-----
2024-07-22 12:48 am-------30.04- 71.4-----
2024-07-22 12:42 am-------30.04- 71.1-----
2024-07-22 12:36 am-------30.04- 71.1-----
2024-07-22 12:30 am--------- 71.1-----
2024-07-22 12:24 am--------- 71.1-----
2024-07-22 12:18 am-------30.04- 70.9-----
2024-07-22 12:12 am-------30.04- 71.1-----
2024-07-22 12:06 am-------30.04- 72.0-----
2024-07-22 12:00 am-------30.04+0.02 71.8-----
2024-07-21 11:54 pm-------30.04- 71.2-----
2024-07-21 11:48 pm-------30.03-------
2024-07-21 11:42 pm-------30.03-------
2024-07-21 11:36 pm-------30.03-------
2024-07-21 11:30 pm-------30.03- 70.5-----
2024-07-21 11:24 pm-------30.03- 70.3-----
2024-07-21 11:18 pm-------30.03- 70.3-----
2024-07-21 11:12 pm-------30.03- 71.1-----
2024-07-21 11:06 pm-------30.03- 71.1-----
2024-07-21 11:00 pm-------30.03+0.03 70.7-----
2024-07-21 10:54 pm-------30.03- 70.7-----
2024-07-21 10:48 pm-------30.03- 71.8-----
2024-07-21 10:42 pm-------30.03- 70.7-----
2024-07-21 10:36 pm-------30.03- 70.7-----
2024-07-21 10:30 pm--------- 70.9-----
2024-07-21 10:24 pm--------- 71.6-----
2024-07-21 10:18 pm-------30.03- 72.5-----
2024-07-21 10:12 pm-------30.03- 72.1-----
2024-07-21 10:06 pm-------30.03- 72.1-----
2024-07-21 10:00 pm-------30.03+0.04 72.3-----
2024-07-21 09:54 pm-------30.03- 72.3-----
2024-07-21 09:48 pm-------30.03- 72.5-----
2024-07-21 09:42 pm-------30.02- 72.1-----
2024-07-21 09:36 pm-------30.02- 73.0-----
2024-07-21 09:30 pm-------30.02- 72.9-----
2024-07-21 09:24 pm-------30.02- 72.3-----
2024-07-21 09:18 pm-------30.02-------
2024-07-21 09:12 pm-------30.02-------
2024-07-21 09:06 pm-------30.01-------
2024-07-21 09:00 pm-------30.01+0.04------
2024-07-21 08:54 pm-------30.01-------
2024-07-21 08:48 pm-------30.01- 72.7-----
2024-07-21 08:42 pm-------30.01- 72.5-----
2024-07-21 08:36 pm-------30.01- 71.8-----
2024-07-21 08:30 pm-------30.01- 71.6-----
2024-07-21 08:24 pm-------30.01- 71.8-----
2024-07-21 08:18 pm-------30.01-------
2024-07-21 08:12 pm-------30.00-------
2024-07-21 08:06 pm-------30.00-------
2024-07-21 08:00 pm-------30.00+0.02 71.1-----
2024-07-21 07:54 pm-------30.00- 71.4-----
2024-07-21 07:48 pm-------29.99-------
2024-07-21 07:42 pm-------29.99-------
2024-07-21 07:36 pm-------29.99-------
2024-07-21 07:30 pm-------29.99- 72.7-----
2024-07-21 07:24 pm-------29.99- 72.7-----
2024-07-21 07:18 pm-------29.99- 72.5-----
2024-07-21 07:00 pm-------29.98+0.01------
2024-07-21 06:54 pm-------29.98-------
2024-07-21 06:48 pm-------29.98- 72.7-----
2024-07-21 06:42 pm-------29.98- 73.8-----
2024-07-21 06:36 pm-------29.98- 73.8-----
2024-07-21 06:30 pm-------29.98- 73.2-----
2024-07-21 06:24 pm-------29.98- 73.9-----
2024-07-21 06:18 pm-------29.98- 73.9-----
2024-07-21 06:12 pm-------29.98- 73.8-----
2024-07-21 06:06 pm-------29.98- 73.4-----
2024-07-21 06:00 pm-------29.98+0.00 73.2-----
2024-07-21 05:54 pm-------29.98- 73.6-----
2024-07-21 05:48 pm-------29.98- 74.5-----
2024-07-21 05:42 pm-------29.98- 74.3-----
2024-07-21 05:36 pm-------29.97- 74.3-----
2024-07-21 05:30 pm-------29.98-------
2024-07-21 05:24 pm-------29.97-------
2024-07-21 05:18 pm-------29.97- 73.0-----
2024-07-21 05:12 pm-------29.97- 72.7-----
2024-07-21 05:06 pm-------29.98- 72.7-----
2024-07-21 05:00 pm-------29.98+0.01 72.7-----
2024-07-21 04:54 pm-------29.97- 72.9-----
2024-07-21 04:48 pm-------29.98- 73.8-----
2024-07-21 04:42 pm-------29.98- 75.0-----
2024-07-21 04:36 pm-------29.98- 75.2-----
2024-07-21 04:30 pm-------29.98- 75.4-----
2024-07-21 04:24 pm-------29.98- 77.2-----
2024-07-21 04:18 pm-------29.98- 76.5-----
2024-07-21 04:12 pm-------29.98- 76.3-----
2024-07-21 04:06 pm-------29.98- 77.2-----
2024-07-21 04:00 pm-------29.98+0.00 75.2-----
2024-07-21 03:54 pm-------29.98- 74.5-----
2024-07-21 03:48 pm-------29.98- 75.0-----
2024-07-21 03:42 pm-------29.98- 74.8-----
2024-07-21 03:36 pm-------29.98- 75.2-----
2024-07-21 03:30 pm-------29.98- 75.2-----
2024-07-21 03:24 pm-------29.98- 75.6-----
2024-07-21 03:18 pm-------29.97- 76.3-----
2024-07-21 03:12 pm-------29.97- 75.2-----
2024-07-21 03:06 pm-------29.97- 74.3-----
2024-07-21 03:00 pm-------29.98+0.00 73.4-----
2024-07-21 02:54 pm-------29.98- 75.4-----
2024-07-21 02:48 pm-------29.97- 76.6-----
2024-07-21 02:42 pm-------29.97- 76.5-----
2024-07-21 02:36 pm-------29.97- 76.8-----
2024-07-21 02:30 pm--------- 77.9-----
2024-07-21 02:24 pm--------- 83.3-----
2024-07-21 02:18 pm-------29.96- 84.6-----
2024-07-21 02:12 pm-------29.96- 85.3-----
2024-07-21 02:06 pm-------29.96- 85.1-----
2024-07-21 02:00 pm-------29.96-0.02------
2024-07-21 01:54 pm-------29.96-------
2024-07-21 01:48 pm-------29.96-------
2024-07-21 01:42 pm-------29.96-------
2024-07-21 01:36 pm-------29.96-------
2024-07-21 01:30 pm-------29.96- 84.2-----
2024-07-21 01:24 pm-------29.96- 84.6-----
2024-07-21 01:18 pm-------29.97- 83.3-----
2024-07-21 01:12 pm-------29.97- 84.0-----
2024-07-21 01:06 pm-------29.97- 83.5-----
2024-07-21 01:00 pm-------29.97-0.01 83.3-----
2024-07-21 12:54 pm-------29.97- 81.5-----
2024-07-21 12:48 pm-------29.97- 81.5-----
2024-07-21 12:42 pm-------29.97- 81.7-----
2024-07-21 12:36 pm-------29.97- 81.7-----
2024-07-21 12:30 pm-------29.98- 81.0-----
2024-07-21 12:24 pm-------29.97- 82.2-----
2024-07-21 12:18 pm-------29.97- 82.6-----
2024-07-21 12:12 pm-------29.97- 83.3-----
2024-07-21 12:06 pm-------29.97- 82.9-----
2024-07-21 12:00 pm-------29.97-0.01 82.4-----
2024-07-21 11:54 am-------29.97- 81.9-----
2024-07-21 11:48 am-------29.97- 81.7-----
2024-07-21 11:42 am-------29.97- 80.8-----
2024-07-21 11:36 am-------29.97- 81.5-----
2024-07-21 11:30 am-------29.97- 80.8-----
2024-07-21 11:24 am-------29.98- 79.3-----
2024-07-21 11:18 am-------29.98- 79.7-----
2024-07-21 11:12 am-------29.98- 82.8-----
2024-07-21 11:06 am-------29.98- 82.6-----
2024-07-21 11:00 am-------29.98-0.01 82.0-----
2024-07-21 10:54 am-------29.98- 82.2-----
2024-07-21 10:48 am-------29.98- 82.4-----
2024-07-21 10:42 am-------29.98- 81.5-----
2024-07-21 10:36 am-------29.98- 80.6-----
2024-07-21 10:30 am-------29.98- 81.1-----
2024-07-21 10:24 am-------29.98- 80.6-----
2024-07-21 10:18 am-------29.98- 80.1-----
2024-07-21 10:12 am-------29.98- 79.3-----
2024-07-21 10:06 am-------29.98- 79.2-----
2024-07-21 10:00 am-------29.98+0.00 79.3-----
2024-07-21 09:54 am-------29.98- 78.4-----